Wind_Speed
35 33 32 33 30 33 33 37 39 38 42 44 43 43 36 45 50 52 54 56 55 52 51 52 52 57 62 69 71 71 70 68 61 58 61 60 62 55 55 50 47 46 44 42
32 31 31 29 28 32 36 41 42 40 43 44 47 47 40 48 52 53 52 49 39 28 33 41 46 50 55 59 67 72 73 71 67 61 61 62 62 59 54 52 49 46 48 43
33 34 28 27 30 36 39 41 46 47 46 43 52 55 49 44 43 45 36 19 23 29 21 27 34 37 44 52 56 68 71 73 70 64 61 65 63 62 59 55 51 45 45 45
30 28 28 30 36 40 46 41 44 50 54 57 54 54 42 38 31 30 22 15 7 9 19 26 25 24 31 37 46 57 69 71 69 63 65 64 65 62 58 54 52 47 43 44
26 26 29 35 38 39 42 45 50 54 57 56 41 32 34 19 17 28 22 18 11 9 11 21 28 26 30 28 35 47 57 67 66 64 68 63 66 63 60 56 54 50 49 51
29 27 32 36 39 38 45 50 53 52 49 42 24 24 21 20 15 12 14 18 15 12 18 25 26 26 26 29 25 34 47 55 63 64 69 66 66 64 63 60 55 58 40 53
27 28 30 37 37 38 42 43 42 34 31 24 34 32 25 8 12 17 16 26 24 31 29 31 31 27 25 24 26 27 38 45 57 64 65 68 65 66 65 63 60 57 58 59
34 34 34 34 38 45 42 34 30 33 30 31 17 16 17 23 20 24 22 16 23 26 23 25 31 31 32 30 23 24 23 38 46 61 63 65 66 67 67 64 64 62 62 60
35 35 35 35 38 43 37 28 32 30 24 26 25 20 21 26 11 11 12 17 27 27 30 20 20 27 33 24 29 28 23 30 41 52 61 62 66 67 67 66 67 66 64 59
37 40 37 33 38 33 34 29 24 26 26 34 29 21 21 21 31 21 22 15 22 25 20 24 33 26 26 21 21 29 20 20 35 44 56 62 64 63 65 67 67 67 66 63
38 42 38 34 37 38 26 20 18 28 31 39 38 22 20 28 33 30 34 34 35 32 28 30 27 23 32 29 29 30 24 24 34 33 43 49 60 62 63 66 65 67 66 64
38 41 42 36 36 33 27 25 29 32 40 38 36 24 23 23 32 38 36 36 38 40 37 30 28 33 29 32 25 30 31 34 33 30 40 30 47 53 61 63 65 67 67 66
40 43 46 41 31 31 29 27 30 22 23 26 37 19 24 30 37 38 38 37 40 38 37 33 39 39 34 34 27 29 35 36 35 33 37 31 31 41 46 52 58 63 63 62
43 44 41 40 36 37 26 21 26 17 33 43 37 30 22 36 39 40 43 45 46 47 49 49 46 47 47 43 43 39 36 35 35 35 36 35 40 38 42 46 50 56 63 62
44 43 40 36 30 33 29 28 26 24 26 33 31 38 38 41 43 46 47 48 51 49 50 50 46 51 52 50 45 38 38 37 37 36 35 36 37 41 39 32 50 51 57 55
43 44 39 32 31 32 31 29 27 28 34 32 35 36 44 44 48 50 47 52 52 48 44 44 43 46 46 57 57 49 40 41 39 38 36 34 39 44 40 31 37 43 46 49
43 43 39 38 33 33 34 31 31 28 32 43 39 41 40 41 44 46 48 42 35 35 34 28 25 34 45 48 57 55 42 40 44 39 36 35 39 38 35 34 34 33 40 42
39 40 41 41 36 35 35 33 29 27 36 39 39 41 42 43 45 35 36 35 31 31 31 30 31 26 35 48 51 54 42 36 43 40 38 36 37 35 40 34 42 37 32 28
38 40 41 42 39 38 30 30 34 39 37 38 42 43 41 43 37 21 35 33 33 36 39 39 37 34 30 41 45 52 46 37 40 39 39 40 39 35 35 31 35 39 32 29
37 38 39 39 39 39 30 32 36 41 40 44 53 45 41 34 31 20 29 30 31 32 38 33 34 31 31 30 49 52 48 39 40 40 42 44 44 38 32 28 29 31 30 27
39 37 34 34 35 32 35 35 35 42 45 48 43 42 39 35 30 26 27 28 30 35 36 33 29 28 30 37 41 49 48 42 41 37 44 47 48 37 33 32 30 32 30 26
38 38 34 33 32 28 28 31 35 39 45 47 42 44 42 39 23 23 25 29 25 33 34 30 20 18 28 39 37 47 48 47 41 41 40 43 44 38 36 32 31 31 31 29
31 32 36 30 29 25 27 34 40 44 48 50 45 45 41 35 14 18 24 26 26 27 33 27 14 13 25 38 39 47 46 50 43 41 31 42 39 37 34 32 29 27 23 25
29 33 27 22 22 27 29 33 39 44 46 48 44 42 38 33 27 22 24 19 21 26 26 23 7 4 23 39 40 44 46 46 48 42 34 38 38 36 34 32 29 24 24 23
32 20 17 22 27 23 30 35 39 39 44 43 42 38 35 29 23 11 20 20 18 20 23 18 1 9 20 34 32 40 42 46 51 46 38 36 34 32 28 27 30 26 24 20
22 16 20 19 26 29 30 33 37 38 41 40 38 35 29 24 22 14 7 15 17 16 18 17 9 14 25 27 32 38 43 47 51 46 38 34 33 30 27 26 29 25 24 22
Wind_Direction
315 314 308 308 311 307 304 303 301 297 294 293 291 291 288 294 293 293 290 285 280 272 265 261 258 251 239 237 239 238 240 241 238 235 239 239 241 238 240 239 237 240 244 242
315 315 309 307 302 303 307 303 305 300 300 296 295 293 290 291 290 286 284 280 278 287 273 266 261 255 252 237 235 237 235 237 238 234 234 237 239 240 237 239 237 236 241 242
318 312 309 305 310 308 309 310 306 306 301 299 298 297 296 290 284 285 278 281 286 290 288 296 276 253 252 251 235 232 234 233 234 236 230 235 236 238 237 234 236 233 238 243
319 312 309 312 312 316 314 311 308 305 305 304 302 304 296 286 278 272 252 247 277 274 281 289 277 282 267 252 243 234 230 229 229 228 233 231 236 236 238 238 237 236 237 241
325 312 316 318 313 316 311 307 308 307 303 304 309 296 294 293 280 272 249 248 263 275 262 277 266 279 285 275 256 239 233 229 225 222 229 226 232 234 235 236 234 241 233 236
323 323 321 311 316 317 314 311 308 305 301 299 307 307 297 291 257 247 264 272 247 243 236 256 261 268 288 265 267 244 237 232 226 222 225 224 225 229 232 234 236 243 232 242
317 310 313 318 313 316 309 309 309 312 307 306 302 301 309 272 265 287 278 276 267 268 269 271 264 268 273 250 253 269 239 232 225 221 224 221 221 224 227 230 233 235 238 238
316 316 322 321 323 319 323 316 316 319 316 329 334 312 310 302 304 296 291 250 266 278 277 294 281 280 253 257 236 231 249 227 227 223 223 222 218 221 223 226 229 232 238 237
316 318 326 324 323 322 322 316 313 306 305 304 319 308 294 293 309 285 275 261 277 280 267 270 280 273 263 235 221 240 246 219 221 225 221 223 222 219 219 223 226 230 233 239
317 318 326 324 322 320 308 309 307 304 297 305 299 298 295 299 272 296 297 280 266 281 283 272 293 295 273 225 238 235 226 240 223 223 227 222 226 224 220 220 224 227 230 233
317 317 324 322 321 323 306 296 305 302 297 302 297 280 284 294 299 293 277 273 286 275 275 274 273 278 271 261 257 236 217 244 238 220 221 224 224 228 225 222 222 224 227 230
315 316 319 323 323 323 310 312 304 299 296 296 293 275 296 293 288 281 283 287 285 282 280 274 268 260 273 255 244 237 245 236 237 241 230 203 224 219 223 223 223 222 224 227
316 321 321 320 327 322 305 304 309 308 319 320 305 297 296 288 282 279 283 283 280 275 270 264 272 269 251 232 251 244 236 233 230 211 227 226 219 215 216 220 226 225 225 227
316 320 317 318 320 316 311 307 309 296 308 296 290 291 291 286 282 282 282 282 279 277 272 266 260 263 264 253 245 244 238 233 226 220 224 227 211 214 220 215 218 226 226 227
312 318 314 317 321 319 318 313 311 290 313 302 296 294 306 299 292 286 286 288 285 280 274 271 263 250 251 254 256 242 233 230 227 220 222 224 213 209 211 221 218 225 223 227
311 314 314 316 320 321 317 311 306 313 308 299 291 299 299 300 297 295 296 290 287 285 280 274 264 255 246 244 243 243 233 219 225 223 220 222 214 211 217 211 212 218 222 223
312 317 317 320 321 318 319 310 307 313 312 315 313 307 301 301 298 304 296 285 289 285 287 275 273 261 244 241 242 235 234 213 216 223 220 219 218 212 219 219 216 218 220 222
314 314 313 317 318 318 316 315 310 305 313 312 311 309 314 306 305 314 292 301 301 299 293 281 279 273 251 231 235 237 229 214 202 214 220 220 220 213 217 219 216 221 223 227
314 317 315 315 313 314 316 309 310 311 310 318 314 317 315 308 308 298 299 301 300 298 295 288 277 267 260 235 225 230 225 209 197 196 210 219 222 215 219 223 210 219 224 221
314 313 309 311 304 311 317 305 311 309 318 324 320 318 316 305 303 304 299 306 311 309 315 299 272 256 239 242 221 221 217 203 191 191 203 213 220 213 213 218 217 215 212 212
311 312 310 303 303 310 309 304 310 313 317 316 316 320 317 312 305 298 300 305 317 327 324 310 283 257 227 223 224 216 214 201 191 195 209 213 211 205 210 213 211 212 215 221
315 313 313 310 309 315 310 306 308 308 312 316 324 325 322 317 294 290 302 306 323 329 324 314 288 257 220 212 214 207 207 204 190 195 209 196 197 200 210 210 212 214 218 222
316 305 311 309 314 315 314 309 311 319 321 319 326 325 320 315 313 340 305 310 313 310 327 325 296 264 216 204 204 198 200 201 183 196 192 191 193 198 206 206 210 214 211 215
301 305 315 311 313 311 309 309 318 318 316 314 325 325 320 310 308 311 316 320 333 319 340 340 304 257 193 190 197 191 196 194 183 193 183 185 192 197 205 208 200 200 203 207
302 312 312 304 308 311 312 316 315 318 310 322 328 324 319 310 318 309 315 321 317 338 351 4 106 157 159 167 170 183 182 181 181 188 180 178 182 189 193 193 189 196 195 204
308 296 301 304 313 318 319 315 319 317 323 330 325 325 325 312 310 289 305 318 334 350 5 32 109 148 163 172 183 182 182 181 182 186 178 180 184 188 189 182 186 188 196 195
Height
5791 5788 5783 5778 5774 5772 5770 5767 5763 5762 5756 5751 5749 5745 5752 5742 5735 5733 5729 5726 5724 5723 5723 5723 5728 5732 5739 5747 5753 5761 5770 5778 5787 5797 5799 5806 5809 5820 5824 5833 5840 5842 5846 5850
5786 5781 5776 5772 5770 5766 5762 5755 5751 5750 5746 5741 5733 5731 5738 5730 5720 5715 5713 5711 5711 5709 5707 5706 5710 5714 5719 5728 5738 5743 5751 5760 5770 5780 5789 5792 5799 5806 5815 5821 5828 5834 5836 5841
5777 5773 5769 5766 5762 5756 5753 5746 5739 5734 5732 5733 5719 5715 5720 5714 5705 5704 5703 5704 5702 5699 5697 5697 5698 5700 5703 5708 5717 5722 5731 5742 5755 5763 5774 5778 5786 5792 5800 5809 5814 5822 5828 5834
5771 5765 5762 5758 5753 5747 5741 5738 5730 5723 5718 5713 5709 5695 5704 5697 5697 5694 5696 5695 5691 5687 5691 5691 5689 5691 5693 5695 5700 5706 5711 5723 5736 5749 5756 5768 5773 5782 5791 5801 5807 5814 5822 5823
5766 5759 5755 5750 5744 5740 5733 5726 5721 5714 5707 5698 5699 5692 5686 5688 5688 5686 5686 5689 5684 5682 5681 5684 5684 5681 5682 5684 5687 5692 5697 5706 5720 5731 5737 5752 5759 5770 5779 5788 5796 5802 5809 5813
5756 5753 5749 5742 5738 5731 5722 5715 5710 5702 5696 5690 5690 5684 5683 5681 5682 5681 5681 5681 5677 5678 5674 5674 5673 5673 5673 5675 5677 5680 5685 5693 5704 5715 5719 5736 5745 5756 5765 5775 5786 5778 5785 5798
5754 5749 5746 5735 5729 5726 5716 5708 5695 5690 5686 5685 5684 5680 5674 5674 5674 5673 5673 5674 5674 5672 5670 5669 5665 5667 5665 5664 5669 5671 5674 5680 5689 5699 5705 5718 5731 5741 5752 5762 5772 5781 5784 5788
5742 5739 5737 5730 5721 5711 5706 5698 5691 5683 5680 5677 5676 5675 5672 5670 5670 5668 5667 5666 5669 5668 5665 5663 5661 5662 5659 5658 5662 5663 5664 5671 5680 5684 5694 5704 5716 5726 5739 5750 5757 5767 5770 5773
5734 5732 5730 5721 5714 5705 5697 5694 5687 5680 5678 5672 5673 5671 5667 5666 5664 5663 5662 5662 5661 5660 5657 5657 5655 5652 5649 5650 5654 5655 5658 5663 5670 5676 5685 5694 5704 5714 5726 5736 5745 5755 5762 5768
5728 5721 5720 5716 5706 5703 5691 5687 5682 5678 5672 5667 5664 5664 5663 5662 5657 5658 5656 5653 5654 5654 5652 5652 5647 5646 5648 5645 5648 5650 5655 5661 5665 5669 5678 5688 5696 5705 5715 5722 5732 5741 5752 5763
5722 5716 5715 5708 5699 5693 5688 5682 5678 5673 5669 5662 5655 5655 5659 5655 5651 5649 5644 5645 5645 5645 5646 5644 5642 5643 5643 5645 5645 5647 5649 5656 5654 5656 5672 5681 5690 5698 5703 5710 5718 5726 5737 5747
5715 5708 5702 5701 5692 5685 5680 5678 5674 5667 5662 5658 5651 5648 5651 5648 5645 5638 5639 5640 5638 5634 5633 5632 5633 5634 5634 5636 5636 5639 5644 5650 5652 5660 5657 5656 5667 5678 5690 5698 5704 5711 5723 5734
5706 5701 5692 5690 5690 5678 5674 5673 5668 5660 5654 5654 5646 5644 5644 5640 5635 5632 5631 5630 5626 5624 5623 5624 5620 5620 5627 5627 5629 5632 5637 5641 5644 5649 5649 5655 5662 5670 5677 5684 5697 5706 5714 5722
5696 5693 5686 5681 5677 5670 5670 5667 5660 5654 5648 5645 5642 5636 5640 5631 5628 5625 5621 5615 5611 5610 5608 5609 5611 5609 5609 5613 5617 5623 5627 5633 5636 5641 5644 5648 5657 5664 5668 5678 5687 5695 5702 5710
5690 5686 5678 5675 5669 5663 5658 5656 5654 5647 5644 5636 5634 5629 5627 5619 5614 5609 5606 5601 5594 5591 5589 5588 5591 5593 5596 5599 5603 5609 5617 5623 5630 5635 5641 5644 5651 5659 5665 5672 5680 5686 5691 5701
5682 5677 5670 5668 5662 5656 5650 5647 5645 5642 5637 5631 5625 5623 5616 5608 5598 5593 5590 5578 5572 5572 5573 5571 5571 5574 5579 5580 5587 5596 5604 5615 5622 5628 5636 5641 5645 5656 5660 5666 5673 5677 5685 5694
5674 5665 5661 5657 5654 5647 5644 5638 5636 5634 5628 5619 5613 5611 5603 5597 5587 5584 5572 5565 5564 5560 5559 5558 5557 5558 5562 5567 5571 5581 5592 5602 5614 5622 5630 5635 5637 5649 5652 5658 5666 5674 5679 5687
5667 5660 5654 5648 5645 5641 5636 5629 5625 5623 5621 5614 5607 5599 5591 5582 5575 5571 5559 5558 5554 5551 5549 5548 5547 5547 5545 5550 5557 5568 5581 5592 5603 5615 5624 5629 5632 5643 5647 5648 5657 5669 5676 5681
5660 5653 5646 5642 5636 5632 5631 5624 5619 5613 5613 5606 5596 5588 5581 5572 5565 5565 5553 5550 5545 5541 5537 5534 5533 5534 5534 5536 5544 5554 5569 5583 5595 5605 5615 5621 5625 5635 5642 5645 5651 5662 5672 5678
5652 5646 5641 5635 5627 5622 5623 5615 5611 5605 5599 5593 5585 5578 5569 5561 5556 5557 5548 5543 5539 5532 5524 5518 5516 5516 5522 5525 5531 5541 5557 5573 5587 5597 5605 5613 5617 5627 5638 5643 5652 5659 5666 5674
5644 5638 5635 5628 5621 5620 5614 5607 5605 5597 5593 5587 5578 5569 5561 5554 5548 5546 5542 5538 5530 5521 5514 5506 5502 5501 5507 5514 5520 5534 5549 5566 5580 5589 5593 5602 5610 5625 5635 5641 5647 5655 5662 5670
5634 5626 5623 5619 5615 5613 5607 5602 5599 5592 5585 5575 5568 5559 5551 5545 5542 5536 5533 5529 5523 5516 5508 5498 5491 5490 5496 5503 5511 5527 5541 5557 5572 5581 5584 5595 5606 5621 5628 5637 5643 5650 5658 5665
5626 5620 5616 5612 5608 5605 5601 5593 5588 5581 5573 5565 5559 5552 5543 5538 5534 5531 5527 5523 5515 5510 5502 5491 5485 5483 5487 5496 5506 5520 5535 5549 5567 5574 5583 5592 5605 5617 5625 5633 5641 5649 5655 5661
5617 5612 5610 5606 5605 5599 5594 5590 5583 5576 5568 5561 5553 5544 5537 5531 5529 5527 5522 5518 5513 5507 5498 5487 5482 5479 5479 5489 5502 5515 5529 5545 5562 5571 5583 5593 5603 5615 5622 5630 5638 5646 5651 5656
5607 5606 5604 5601 5597 5596 5587 5582 5576 5571 5562 5553 5546 5537 5531 5526 5524 5523 5519 5514 5510 5505 5497 5489 5484 5483 5485 5493 5503 5515 5528 5542 5557 5569 5583 5593 5602 5611 5620 5628 5637 5643 5648 5653
5604 5601 5598 5597 5592 5587 5583 5578 5570 5561 5553 5546 5538 5532 5525 5522 5520 5518 5516 5513 5508 5505 5499 5493 5489 5489 5493 5499 5505 5516 5529 5542 5557 5570 5584 5594 5602 5609 5618 5628 5635 5641 5644 5648